When you browse on this site, cookies collect data to enhance your experience and personalize the content and advertising you see.
Visit our Privacy Policy to learn more. By continuing to use the site, you agree to this use of cookies and data.
  • In Belgium
  • List of Countries
  • For 7 days
  • Water Temperature
  • Satellite Maps
  • Weather Map
  • Weather Widgets
  • user-avatar
    Login

    Hourly Weather De Panne

    Today, 20 February, Wednesday

    Time Temperature Precipitation Wind Pressure Humidity
    00:00 +3°C° 0 mm 5 mps 764 mmHg 88%
    01:00 +3°C° 0 mm 5 mps 764 mmHg 88%
    02:00 +3°C° 0 mm 5 mps 764 mmHg 88%
    03:00 +3°C° 0 mm 5 mps 764 mmHg 88%
    04:00 +2°C° 0 mm 5 mps 764 mmHg 89%
    05:00 +2°C° 0 mm 5 mps 764 mmHg 90%
    06:00 +2°C° 0 mm 5 mps 764 mmHg 91%
    07:00 +2°C° 0 mm 5 mps 764 mmHg 88%
    08:00 +3°C° 0 mm 5 mps 765 mmHg 84%
    09:00 +4°C° 0 mm 6 mps 765 mmHg 81%
    10:00 +6°C° 0 mm 5 mps 765 mmHg 77%
    11:00 +8°C° 0 mm 5 mps 765 mmHg 73%
    12:00 +9°C° 0 mm 5 mps 765 mmHg 69%
    13:00 +10°C° 0 mm 5 mps 765 mmHg 68%
    14:00 +10°C° 0 mm 5 mps 765 mmHg 66%
    15:00 +10°C° 0 mm 5 mps 765 mmHg 65%
    16:00 +9°C° 0 mm 5 mps 765 mmHg 71%
    17:00 +8°C° 0 mm 4 mps 765 mmHg 77%
    18:00 +7°C° 0 mm 4 mps 766 mmHg 84%
    19:00 +7°C° 0 mm 3 mps 766 mmHg 85%
    20:00 +7°C° 0 mm 3 mps 766 mmHg 87%
    21:00 +7°C° 0 mm 3 mps 766 mmHg 89%
    22:00 +5°C° 0 mm 3 mps 767 mmHg 89%
    23:00 +5°C° 0 mm 3 mps 767 mmHg 90%

    Tomorrow, 21 February, Thursday

    Time Temperature Precipitation Wind Pressure Humidity
    00:00 +5°C° 0 mm 3 mps 767 mmHg 90%
    01:00 +5°C° 0 mm 4 mps 767 mmHg 90%
    02:00 +5°C° 0 mm 4 mps 767 mmHg 91%
    03:00 +5°C° 0 mm 4 mps 767 mmHg 91%
    04:00 +5°C° 0 mm 4 mps 768 mmHg 91%
    05:00 +5°C° 0 mm 4 mps 768 mmHg 91%
    06:00 +5°C° 0 mm 4 mps 768 mmHg 91%
    07:00 +6°C° 0 mm 4 mps 768 mmHg 88%
    08:00 +7°C° 0 mm 4 mps 768 mmHg 85%
    09:00 +7°C° 0 mm 4 mps 769 mmHg 82%
    10:00 +10°C° 0 mm 4 mps 769 mmHg 78%
    11:00 +11°C° 0 mm 4 mps 769 mmHg 73%
    12:00 +12°C° 0 mm 4 mps 769 mmHg 69%
    13:00 +12°C° 0 mm 4 mps 769 mmHg 68%
    14:00 +12°C° 0 mm 3 mps 769 mmHg 68%
    15:00 +13°C° 0 mm 3 mps 769 mmHg 67%
    16:00 +11°C° 0 mm 3 mps 770 mmHg 72%
    17:00 +10°C° 0 mm 3 mps 770 mmHg 78%
    18:00 +9°C° 0 mm 3 mps 771 mmHg 83%
    19:00 +9°C° 0 mm 3 mps 771 mmHg 84%
    20:00 +8°C° 0 mm 2 mps 771 mmHg 85%
    21:00 +8°C° 0 mm 2 mps 772 mmHg 86%
    22:00 +8°C° 0 mm 2 mps 772 mmHg 86%
    23:00 +8°C° 0 mm 1 mps 772 mmHg 86%

    Day after tomorrow, 22 February, Friday

    Time Temperature Precipitation Wind Pressure Humidity
    00:00 +8°C° 0 mm 1 mps 773 mmHg 86%
    01:00 +8°C° 0 mm 1 mps 773 mmHg 87%
    02:00 +8°C° 0 mm 1 mps 773 mmHg 87%
    03:00 +8°C° 0 mm 1 mps 774 mmHg 87%
    04:00 +8°C° 0 mm 1 mps 774 mmHg 87%
    05:00 +8°C° 0 mm 1 mps 774 mmHg 88%
    06:00 +7°C° 0 mm 1 mps 774 mmHg 88%
    07:00 +8°C° 0 mm 1 mps 774 mmHg 85%
    08:00 +9°C° 0 mm 1 mps 775 mmHg 83%
    09:00 +10°C° 0 mm 1 mps 775 mmHg 81%
    10:00 +12°C° 0 mm 1 mps 775 mmHg 76%
    11:00 +13°C° 0 mm 1 mps 775 mmHg 71%
    12:00 +14°C° 0 mm 1 mps 775 mmHg 66%
    13:00 +15°C° 0 mm 1 mps 775 mmHg 65%
    14:00 +15°C° 0 mm 2 mps 775 mmHg 63%
    15:00 +15°C° 0 mm 2 mps 775 mmHg 62%
    16:00 +13°C° 0 mm 3 mps 775 mmHg 66%
    17:00 +12°C° 0 mm 3 mps 775 mmHg 71%
    18:00 +11°C° 0 mm 3 mps 775 mmHg 75%
    19:00 +10°C° 0 mm 3 mps 775 mmHg 77%
    20:00 +10°C° 0 mm 3 mps 776 mmHg 79%
    21:00 +9°C° 0 mm 3 mps 776 mmHg 82%
    22:00 +9°C° 0 mm 3 mps 776 mmHg 85%
    23:00 +9°C° 0 mm 3 mps 776 mmHg 88%

    23 February, Saturday

    Time Temperature Precipitation Wind Pressure Humidity
    00:00 +9°C° 0 mm 3 mps 775 mmHg 92%
    01:00 +8°C° 0 mm 3 mps 775 mmHg 93%
    02:00 +8°C° 0 mm 3 mps 775 mmHg 94%
    03:00 +7°C° 0 mm 4 mps 775 mmHg 95%
    04:00 +6°C° 0 mm 4 mps 775 mmHg 94%
    05:00 +6°C° 0 mm 4 mps 775 mmHg 94%
    06:00 +5°C° 0 mm 4 mps 775 mmHg 93%
    07:00 +6°C° 0 mm 4 mps 775 mmHg 89%
    08:00 +7°C° 0 mm 4 mps 775 mmHg 84%
    09:00 +8°C° 0 mm 4 mps 775 mmHg 80%
    10:00 +10°C° 0 mm 4 mps 775 mmHg 75%
    11:00 +11°C° 0 mm 4 mps 775 mmHg 69%
    12:00 +12°C° 0 mm 3 mps 775 mmHg 63%
    13:00 +13°C° 0 mm 3 mps 774 mmHg 61%
    14:00 +13°C° 0 mm 3 mps 774 mmHg 60%
    15:00 +14°C° 0 mm 3 mps 774 mmHg 58%
    16:00 +12°C° 0 mm 3 mps 774 mmHg 62%
    17:00 +11°C° 0 mm 3 mps 774 mmHg 66%
    18:00 +10°C° 0 mm 3 mps 774 mmHg 70%
    19:00 +9°C° 0 mm 3 mps 774 mmHg 71%
    20:00 +8°C° 0 mm 4 mps 774 mmHg 71%
    21:00 +7°C° 0 mm 4 mps 774 mmHg 72%
    22:00 +7°C° 0 mm 4 mps 774 mmHg 70%
    23:00 +7°C° 0 mm 3 mps 774 mmHg 67%

    24 February, Sunday

    Time Temperature Precipitation Wind Pressure Humidity
    00:00 +7°C° 0 mm 3 mps 774 mmHg 65%
    01:00 +5°C° 0 mm 3 mps 774 mmHg 63%
    02:00 +5°C° 0 mm 3 mps 774 mmHg 60%
    03:00 +5°C° 0 mm 2 mps 774 mmHg 58%
    04:00 +4°C° 0 mm 3 mps 774 mmHg 57%
    05:00 +4°C° 0 mm 3 mps 774 mmHg 56%
    06:00 +3°C° 0 mm 3 mps 774 mmHg 56%
    07:00 +5°C° 0 mm 2 mps 774 mmHg 54%
    08:00 +6°C° 0 mm 2 mps 775 mmHg 52%
    09:00 +8°C° 0 mm 1 mps 775 mmHg 49%
    10:00 +9°C° 0 mm 1 mps 775 mmHg 46%
    11:00 +10°C° 0 mm 1 mps 775 mmHg 42%
    12:00 +12°C° 0 mm 1 mps 775 mmHg 39%
    13:00 +12°C° 0 mm 2 mps 775 mmHg 40%
    14:00 +13°C° 0 mm 2 mps 775 mmHg 40%
    15:00 +12°C° 0 mm 3 mps 774 mmHg 41%
    16:00 +12°C° 0 mm 2 mps 774 mmHg 44%
    17:00 +10°C° 0 mm 2 mps 775 mmHg 48%
    18:00 +9°C° 0 mm 2 mps 775 mmHg 51%
    19:00 +8°C° 0 mm 2 mps 775 mmHg 52%
    20:00 +8°C° 0 mm 3 mps 775 mmHg 53%
    21:00 +8°C° 0 mm 3 mps 776 mmHg 54%
    22:00 +7°C° 0 mm 3 mps 776 mmHg 55%
    23:00 +7°C° 0 mm 3 mps 776 mmHg 56%

    25 February, Monday

    Time Temperature Precipitation Wind Pressure Humidity
    00:00 +7°C° 0 mm 2 mps 776 mmHg 57%
    01:00 +6°C° 0 mm 2 mps 776 mmHg 58%
    02:00 +6°C° 0 mm 2 mps 776 mmHg 59%
    03:00 +6°C° 0 mm 2 mps 776 mmHg 60%
    04:00 +6°C° 0 mm 2 mps 776 mmHg 61%
    05:00 +5°C° 0 mm 2 mps 776 mmHg 63%
    06:00 +4°C° 0 mm 3 mps 776 mmHg 64%
    07:00 +5°C° 0 mm 3 mps 776 mmHg 63%
    08:00 +7°C° 0 mm 3 mps 776 mmHg 62%
    09:00 +7°C° 0 mm 4 mps 777 mmHg 61%
    10:00 +9°C° 0 mm 3 mps 777 mmHg 57%
    11:00 +11°C° 0 mm 3 mps 777 mmHg 53%
    12:00 +12°C° 0 mm 3 mps 776 mmHg 49%
    13:00 +13°C° 0 mm 3 mps 776 mmHg 50%
    14:00 +13°C° 0 mm 4 mps 776 mmHg 51%
    15:00 +13°C° 0 mm 4 mps 776 mmHg 52%
    16:00 +12°C° 0 mm 4 mps 776 mmHg 57%
    17:00 +11°C° 0 mm 4 mps 776 mmHg 63%
    18:00 +8°C° 0 mm 4 mps 776 mmHg 68%
    19:00 +8°C° 0 mm 4 mps 776 mmHg 69%
    20:00 +8°C° 0 mm 4 mps 776 mmHg 71%
    21:00 +7°C° 0 mm 4 mps 776 mmHg 72%
    22:00 +7°C° 0 mm 4 mps 776 mmHg 73%
    23:00 +7°C° 0 mm 4 mps 776 mmHg 74%
    Show more